Startpagina
METAR-TAF:

METAR-TAF

Vliegvelden :

Johnson County Airport

Buffalo, Wyoming, Verenigde Staten

breedte: 44-22-53N, lengte: 106-43-08W, hoogte: 1514 m

Actueel weer

Dit bericht is 1 uur en het 2 minuten geleden gemaakt, om 05:53 UTC
Wind 6 kt uit het zuiden
Temperatuur 3°C
Vochtigheid 41%
Druk 1015 hPa
Zicht: 16.1 km
Onbewolkt

METAR: KBYG 070553Z AUTO 19006KT 10SM CLR 03/M09 A2996 RMK AO2 SLP149 T00281089 10044 20006 56017

Tijdstip: 23:55 (06:55 UTC)


TAF: ontbreekt

Waarnemingen en weersverwachtingen van meer dan 4000 vliegvelden (METAR en TAF).

De beschikbare stations zijn de gele en rode punten op de kaart.

Ga met uw muis naar het station om de naam te zien.

Klik dan om waarnemingen en weersverwachtingen te zien.

kaart wijzigen: klik op de groene knoppen met een zwart kruis om in te zoomen, op de groene knop met een streepje om uit te zoomen of op de groene pijlen voor aangrenzende kaarten.


METAR-TAF: